Погода в Лаймингтоне

Великобритания     50°45′42″N   1°32′32″W
темп.,
°C
ветер,
м/с
пор.,
м/с
влажн.,
%
обл.,
%
осадки,
мм/ч
давл.,
гПа
погр.,
м
7 мая, пт
пт701:00+3ссз48840 0.1 1013158
04:00+2сз49870 0.0 1014196
07:00+4ссз36800 0.0 1016167
10:00+10з23574 0.0 10171038
13:00+10юз776120 0.1 10181037
16:00+10юз5657100 0.0 1017701
19:00+9ююз3461100 0.0 1017354
22:00+7юв3466100 0.0 1016150
8 мая, сб
сб801:00+9юв61067100 0.0 1013514
04:00+9ююв71394100 1.1 1009654
07:00+10ю101798100 6.4 1005611
10:00+12ююз121894100 2.8 1004851
13:00+13ююз10188699 2.8 1004766
16:00+15ююз9177835 0.0 1003832
19:00+13ююз917790 0.0 1002654
22:00+13ююз817810 0.0 1001612
9 мая, вс
вс901:00+12ююз715850 0.0 1000468
04:00+12ююз6148273 0.0 998362
07:00+12ююз612835 0.0 997423
10:00+14ю71375100 0.0 997605
13:00+14ююз61175100 0.0 997630
16:00+13зюз5782100 0.0 996411
19:00+10ююз2792100 0.4 996297
22:00+10ю4892100 0.1 996231
10 мая, пн
пн1001:00+10ю7139098 0.1 997519
04:00+10ююз8139335 0.1 997703
07:00+10ююз10148813 0.3 999899
10:00+11ююз10138518 0.4 10011042
13:00+12ююз811764 0.8 10041073
16:00+13ююз69685 0.0 1004878
19:00+12ю48755 0.0 1004427
22:00+10ююв48835 0.0 1005129
11 мая, вт
вт1101:00+11ю612825 0.1 1005493
04:00+10ююз6119023 0.0 1005484
07:00+10ю61188100 0.0 1006674
10:00+12ююз567886 0.0 1007765
13:00+12ююз5676100 0.1 1009790
16:00+12юз5774100 0.0 1009694
19:00+11ююз4878100 0.0 1010433
22:00+10ююз598946 0.0 1011329